| time (UTC) | temp F | wind direction | speed MPH | gust MPH | rain 1hr in | rain 24hr in | rain mn in | humidity % | barometer mb |
| 20260904181527 | 79 | 355 | 1.0 | 8.0 | 0.00 | 0.03 | 0.00 | 77 | 1010.2 |
| 20260904181025 | 79 | 77 | 2.0 | 9.0 | 0.00 | 0.03 | 0.00 | 77 | 1010.3 |
| 20260904180524 | 79 | 5 | 2.0 | 9.0 | 0.00 | 0.03 | 0.00 | 77 | 1010.4 |
| 20260904180024 | 79 | 9 | 2.0 | 9.0 | 0.00 | 0.03 | 0.00 | 76 | 1010.4 |
| 20260904175525 | 79 | 360 | 4.0 | 9.0 | 0.00 | 0.03 | 0.00 | 75 | 1010.4 |
| 20260904175024 | 79 | 355 | 3.0 | 8.0 | 0.00 | 0.03 | 0.00 | 76 | 1010.4 |
| 20260904174522 | 79 | 5 | 2.0 | 9.0 | 0.00 | 0.03 | 0.00 | 78 | 1010.4 |
| 20260904174020 | 78 | 5 | 3.0 | 9.0 | 0.00 | 0.03 | 0.00 | 77 | 1010.3 |
| 20260904173520 | 78 | 9 | 2.0 | 8.0 | 0.00 | 0.03 | 0.00 | 80 | 1010.3 |
| 20260904173034 | 78 | 360 | 3.0 | 8.0 | 0.00 | 0.03 | 0.00 | 78 | 1010.4 |
| 20260904172519 | 78 | 9 | 4.0 | 8.0 | 0.00 | 0.03 | 0.00 | 78 | 1010.4 |
| 20260904172018 | 78 | 360 | 2.0 | 5.0 | 0.00 | 0.03 | 0.00 | 80 | 1010.4 |
| 20260904171517 | 78 | 340 | 2.0 | 6.0 | 0.00 | 0.03 | 0.00 | 81 | 1010.5 |
| 20260904171016 | 78 | 5 | 3.0 | 6.0 | 0.00 | 0.03 | 0.00 | 80 | 1010.6 |
| 20260904170514 | 77 | 355 | 1.0 | 5.0 | 0.00 | 0.03 | 0.00 | 82 | 1010.5 |
| 20260904170015 | 77 | 355 | 1.0 | 6.0 | 0.00 | 0.03 | 0.00 | 82 | 1010.5 |
| 20260904165512 | 76 | 355 | 2.0 | 6.0 | 0.00 | 0.03 | 0.00 | 82 | 1010.5 |
| 20260904165012 | 76 | 5 | 2.0 | 5.0 | 0.00 | 0.03 | 0.00 | 84 | 1010.5 |
| 20260904164514 | 76 | 9 | 2.0 | 5.0 | 0.00 | 0.03 | 0.00 | 85 | 1010.5 |
| 20260904164008 | 75 | 5 | 2.0 | 5.0 | 0.00 | 0.03 | 0.00 | 86 | 1010.4 |
| 20260904163508 | 75 | 53 | 1.0 | 4.0 | 0.00 | 0.03 | 0.00 | 88 | 1010.4 |
| 20260904163026 | 74 | 5 | 0.0 | 5.0 | 0.00 | 0.03 | 0.00 | 90 | 1010.3 |
| 20260904162505 | 73 | 355 | 3.0 | 6.0 | 0.00 | 0.03 | 0.00 | 89 | 1010.4 |
| 20260904162003 | 73 | 5 | 3.0 | 8.0 | 0.00 | 0.03 | 0.00 | 90 | 1010.3 |
| 20260904161502 | 72 | 5 | 3.0 | 8.0 | 0.00 | 0.03 | 0.00 | 92 | 1010.3 |
| 20260904161102 | 72 | 12 | 2.0 | 6.0 | 0.00 | 0.03 | 0.00 | 93 | 1010.2 |
| 20260904161002 | 71 | 12 | 3.0 | 7.0 | 0.00 | 0.03 | 0.00 | 93 | 1010.2 |
| 20260904160559 | 71 | 9 | 3.0 | 8.0 | 0.00 | 0.03 | 0.00 | 94 | 1010.2 |
| 20260904160057 | 70 | 355 | 4.0 | 8.0 | 0.00 | 0.03 | 0.00 | 95 | 1010.2 |
| 20260904155556 | 70 | 5 | 3.0 | 9.0 | 0.00 | 0.03 | 0.00 | 96 | 1010.2 |
| 20260904155055 | 70 | 5 | 4.0 | 9.0 | 0.00 | 0.03 | 0.00 | 97 | 1010.2 |
| 20260904154556 | 69 | 360 | 3.0 | 9.0 | 0.00 | 0.03 | 0.00 | 98 | 1010.2 |
| 20260904154056 | 68 | 5 | 3.0 | 10.0 | 0.00 | 0.03 | 0.00 | 98 | 1010.2 |
| 20260904153555 | 68 | 5 | 5.0 | 10.0 | 0.00 | 0.03 | 0.00 | 98 | 1010.1 |
| 20260904153100 | 67 | 9 | 3.0 | 6.0 | 0.00 | 0.03 | 0.00 | 98 | 1010.1 |
| 20260904152555 | 67 | 10 | 3.0 | 6.0 | 0.00 | 0.03 | 0.00 | 98 | 1010.2 |
| 20260904152054 | 67 | 11 | 3.0 | 6.0 | 0.00 | 0.03 | 0.00 | 98 | 1010.3 |
| 20260904151557 | 67 | 5 | 3.0 | 6.0 | 0.00 | 0.03 | 0.00 | 98 | 1010.3 |
| 20260904151056 | 67 | 5 | 2.0 | 3.0 | 0.00 | 0.03 | 0.00 | 98 | 1010.3 |
| 20260904150553 | 66 | 5 | 1.0 | 5.0 | 0.00 | 0.03 | 0.00 | 98 | 1010.3 |
| 20260904150059 | 66 | 5 | 2.0 | 5.0 | 0.00 | 0.03 | 0.00 | 98 | 1010.2 |
| 20260904145553 | 66 | 5 | 2.0 | 5.0 | 0.00 | 0.03 | 0.00 | 98 | 1010.2 |
| 20260904145053 | 66 | 360 | 2.0 | 4.0 | 0.00 | 0.03 | 0.00 | 98 | 1010.1 |
| 20260904144604 | 65 | 360 | 0.0 | 4.0 | 0.00 | 0.03 | 0.00 | 98 | 1010.1 |
| 20260904144055 | 65 | 360 | 2.0 | 6.0 | 0.00 | 0.03 | 0.00 | 98 | 1010.0 |
| 20260904143555 | 65 | 360 | 2.0 | 6.0 | 0.00 | 0.03 | 0.00 | 98 | 1010.1 |
| 20260904143055 | 65 | 297 | 2.0 | 3.0 | 0.00 | 0.03 | 0.00 | 98 | 1010.1 |
| 20260904142553 | 65 | 276 | 0.0 | 3.0 | 0.00 | 0.03 | 0.00 | 98 | 1010.2 |
| 20260904142053 | 64 | 275 | 0.0 | 2.0 | 0.00 | 0.03 | 0.00 | 98 | 1010.1 |
| 20260904141551 | 64 | 275 | 1.0 | 2.0 | 0.00 | 0.03 | 0.00 | 98 | 1010.0 |
| 20260904141051 | 64 | 244 | 0.0 | 3.0 | 0.00 | 0.03 | 0.00 | 98 | 1010.1 |
| 20260904140551 | 64 | 243 | 0.0 | 0.0 | 0.00 | 0.03 | 0.00 | 98 | 1010.2 |
| 20260904140057 | 64 | 244 | 0.0 | 0.0 | 0.00 | 0.03 | 0.00 | 98 | 1010.2 |
| 20260904135551 | 64 | 244 | 0.0 | 0.0 | 0.00 | 0.03 | 0.00 | 98 | 1010.2 |
| 20260904135050 | 64 | 244 | 0.0 | 0.0 | 0.00 | 0.03 | 0.00 | 98 | 1010.2 |
| 20260904134650 | 64 | 244 | 0.0 | 1.0 | 0.00 | 0.03 | 0.00 | 98 | 1010.1 |
| 20260904134049 | 64 | 244 | 0.0 | 2.0 | 0.00 | 0.03 | 0.00 | 98 | 1010.0 |
| 20260904133551 | 64 | 243 | 0.0 | 4.0 | 0.00 | 0.03 | 0.00 | 97 | 1010.0 |
| 20260904133048 | 64 | 244 | 2.0 | 4.0 | 0.00 | 0.03 | 0.00 | 98 | 1010.0 |
| 20260904132548 | 64 | 11 | 0.0 | 4.0 | 0.00 | 0.03 | 0.00 | 97 | 1009.6 |
| 20260904132146 | 64 | 11 | 1.0 | 4.0 | 0.00 | 0.03 | 0.00 | 97 | 1009.4 |
| 20260904131616 | 64 | 11 | 1.0 | 3.0 | 0.00 | 0.03 | 0.00 | 97 | 1009.3 |
| 20260904131043 | 64 | 12 | 1.0 | 6.0 | 0.00 | 0.03 | 0.00 | 97 | 1009.3 |
| 20260904130644 | 64 | 12 | 2.0 | 6.0 | 0.00 | 0.03 | 0.00 | 97 | 1009.1 |
| 20260904130044 | 64 | 12 | 0.0 | 5.0 | 0.00 | 0.03 | 0.00 | 97 | 1009.0 |
| 20260904125527 | 64 | 11 | 2.0 | 5.0 | 0.00 | 0.03 | 0.00 | 97 | 1009.0 |
| 20260904125025 | 64 | 11 | 2.0 | 4.0 | 0.00 | 0.03 | 0.00 | 97 | 1009.0 |
| 20260904124527 | 64 | 11 | 2.0 | 4.0 | 0.00 | 0.03 | 0.00 | 97 | 1008.9 |
| 20260904124024 | 64 | 9 | 2.0 | 4.0 | 0.00 | 0.03 | 0.00 | 97 | 1009.0 |
| 20260904123523 | 64 | 5 | 2.0 | 4.0 | 0.00 | 0.03 | 0.00 | 97 | 1008.9 |
| 20260904123052 | 64 | 5 | 1.0 | 4.0 | 0.00 | 0.03 | 0.00 | 97 | 1009.0 |
| 20260904122522 | 64 | 5 | 2.0 | 4.0 | 0.00 | 0.03 | 0.00 | 97 | 1009.0 |
| 20260904122023 | 64 | 5 | 2.0 | 4.0 | 0.00 | 0.03 | 0.00 | 97 | 1008.9 |
| 20260904121521 | 64 | 5 | 1.0 | 3.0 | 0.00 | 0.03 | 0.00 | 97 | 1008.8 |
| 20260904121021 | 64 | 5 | 0.0 | 2.0 | 0.00 | 0.03 | 0.00 | 97 | 1008.8 |
| 20260904120551 | 64 | 5 | 0.0 | 0.0 | 0.00 | 0.03 | 0.00 | 97 | 1008.8 |
| 20260904120018 | 64 | 5 | 0.0 | 0.0 | 0.00 | 0.03 | 0.00 | 97 | 1008.7 |
| 20260904115517 | 64 | 5 | 0.0 | 0.0 | 0.00 | 0.03 | 0.00 | 97 | 1008.5 |
| 20260904115017 | 64 | 5 | 0.0 | 0.0 | 0.00 | 0.03 | 0.00 | 97 | 1008.5 |
| 20260904114523 | 64 | 5 | 0.0 | 5.0 | 0.00 | 0.03 | 0.00 | 97 | 1008.3 |
| 20260904114013 | 64 | 5 | 2.0 | 5.0 | 0.00 | 0.03 | 0.00 | 97 | 1008.2 |
| 20260904113514 | 64 | 19 | 2.0 | 5.0 | 0.00 | 0.03 | 0.00 | 97 | 1008.1 |
| 20260904113113 | 64 | 5 | 2.0 | 3.0 | 0.00 | 0.03 | 0.00 | 97 | 1008.1 |
| 20260904112512 | 64 | 5 | 2.0 | 4.0 | 0.00 | 0.03 | 0.00 | 96 | 1008.1 |
| 20260904112014 | 64 | 5 | 2.0 | 4.0 | 0.00 | 0.03 | 0.00 | 96 | 1008.1 |
| 20260904111511 | 64 | 5 | 1.0 | 6.0 | 0.00 | 0.03 | 0.00 | 96 | 1008.1 |
| 20260904111011 | 64 | 5 | 2.0 | 4.0 | 0.00 | 0.03 | 0.00 | 96 | 1008.1 |
| 20260904110511 | 64 | 9 | 2.0 | 6.0 | 0.00 | 0.03 | 0.00 | 96 | 1008.0 |
| 20260904110011 | 64 | 9 | 2.0 | 6.0 | 0.00 | 0.03 | 0.00 | 96 | 1007.9 |
| 20260904105611 | 64 | 5 | 3.0 | 5.0 | 0.00 | 0.03 | 0.00 | 96 | 1007.8 |
| 20260904105010 | 64 | 5 | 2.0 | 5.0 | 0.00 | 0.03 | 0.00 | 96 | 1007.9 |
| 20260904104511 | 64 | 5 | 2.0 | 5.0 | 0.00 | 0.03 | 0.00 | 96 | 1008.0 |
| 20260904104008 | 64 | 5 | 2.0 | 5.0 | 0.00 | 0.03 | 0.00 | 96 | 1008.0 |
| 20260904103507 | 64 | 5 | 2.0 | 5.0 | 0.00 | 0.03 | 0.00 | 96 | 1007.9 |
| 20260904103031 | 64 | 9 | 2.0 | 8.0 | 0.00 | 0.03 | 0.00 | 95 | 1007.8 |
| 20260904102507 | 64 | 5 | 2.0 | 8.0 | 0.00 | 0.03 | 0.00 | 95 | 1007.8 |
| 20260904102009 | 64 | 348 | 2.0 | 9.0 | 0.00 | 0.03 | 0.00 | 95 | 1007.6 |
| 20260904101505 | 64 | 333 | 3.0 | 9.0 | 0.00 | 0.03 | 0.00 | 95 | 1007.6 |
| 20260904101036 | 64 | 360 | 3.0 | 9.0 | 0.00 | 0.03 | 0.00 | 95 | 1007.4 |
| 20260904100503 | 64 | 10 | 3.0 | 9.0 | 0.00 | 0.03 | 0.00 | 95 | 1007.5 |
| 20260904100028 | 64 | 5 | 2.0 | 6.0 | 0.00 | 0.03 | 0.00 | 95 | 1007.4 |
| 20260904095502 | 64 | 5 | 3.0 | 5.0 | 0.00 | 0.03 | 0.00 | 94 | 1007.4 |
| 20260904095002 | 64 | 5 | 2.0 | 5.0 | 0.00 | 0.03 | 0.00 | 94 | 1007.4 |
| 20260904094601 | 64 | 5 | 2.0 | 6.0 | 0.00 | 0.03 | 0.00 | 94 | 1007.3 |
| 20260904094059 | 64 | 10 | 3.0 | 6.0 | 0.00 | 0.03 | 0.00 | 94 | 1007.3 |
| 20260904093600 | 64 | 355 | 3.0 | 8.0 | 0.00 | 0.03 | 0.00 | 94 | 1007.1 |
| 20260904093059 | 64 | 360 | 3.0 | 6.0 | 0.00 | 0.03 | 0.00 | 93 | 1007.2 |
| 20260904092556 | 64 | 360 | 3.0 | 9.0 | 0.00 | 0.03 | 0.00 | 93 | 1007.0 |
| 20260904092508 | 64 | 360 | 3.0 | 9.0 | 0.00 | 0.03 | 0.00 | 93 | 1006.9 |
| 20260904092055 | 64 | 5 | 4.0 | 9.0 | 0.00 | 0.03 | 0.00 | 93 | 1006.9 |
| 20260904091555 | 64 | 360 | 3.0 | 8.0 | 0.00 | 0.03 | 0.00 | 93 | 1007.0 |
| 20260904091057 | 65 | 360 | 3.0 | 8.0 | 0.00 | 0.03 | 0.00 | 93 | 1006.9 |
| 20260904090553 | 65 | 11 | 4.0 | 8.0 | 0.00 | 0.03 | 0.00 | 93 | 1006.9 |
| 20260904090513 | 65 | 360 | 4.0 | 8.0 | 0.00 | 0.03 | 0.00 | 93 | 1006.9 |
| 20260904090053 | 65 | 355 | 3.0 | 8.0 | 0.00 | 0.03 | 0.00 | 92 | 1006.8 |
| 20260904085552 | 65 | 9 | 2.0 | 9.0 | 0.00 | 0.03 | 0.00 | 92 | 1006.8 |
| 20260904085051 | 65 | 11 | 4.0 | 9.0 | 0.00 | 0.03 | 0.00 | 92 | 1006.7 |
| 20260904084551 | 65 | 355 | 3.0 | 8.0 | 0.00 | 0.03 | 0.00 | 92 | 1006.7 |
| 20260904084049 | 65 | 5 | 4.0 | 8.0 | 0.00 | 0.03 | 0.00 | 92 | 1006.7 |
| 20260904083552 | 65 | 5 | 3.0 | 8.0 | 0.00 | 0.03 | 0.00 | 92 | 1006.7 |
| 20260904083049 | 65 | 5 | 3.0 | 6.0 | 0.00 | 0.03 | 0.00 | 92 | 1006.7 |
| 20260904082549 | 65 | 9 | 3.0 | 6.0 | 0.00 | 0.03 | 0.00 | 92 | 1006.7 |
| 20260904082048 | 65 | 9 | 3.0 | 7.0 | 0.00 | 0.03 | 0.00 | 92 | 1006.7 |
| 20260904081547 | 65 | 15 | 3.0 | 6.0 | 0.00 | 0.03 | 0.00 | 92 | 1006.7 |
| 20260904081050 | 66 | 12 | 3.0 | 7.0 | 0.00 | 0.03 | 0.00 | 92 | 1006.7 |
| 20260904080545 | 66 | 9 | 3.0 | 6.0 | 0.00 | 0.03 | 0.00 | 92 | 1006.6 |
| 20260904080054 | 66 | 11 | 3.0 | 8.0 | 0.00 | 0.03 | 0.00 | 92 | 1006.5 |
| 20260904075544 | 66 | 360 | 3.0 | 8.0 | 0.00 | 0.03 | 0.00 | 92 | 1006.4 |
| 20260904075046 | 66 | 5 | 3.0 | 8.0 | 0.00 | 0.03 | 0.00 | 92 | 1006.3 |
| 20260904074546 | 66 | 9 | 4.0 | 8.0 | 0.00 | 0.03 | 0.00 | 92 | 1006.3 |
| 20260904074041 | 66 | 9 | 3.0 | 8.0 | 0.00 | 0.03 | 0.00 | 92 | 1006.3 |
| 20260904073540 | 67 | 360 | 3.0 | 6.0 | 0.00 | 0.03 | 0.00 | 92 | 1006.3 |
| 20260904073041 | 67 | 360 | 3.0 | 6.0 | 0.00 | 0.03 | 0.00 | 92 | 1006.3 |
| 20260904072539 | 67 | 9 | 2.0 | 6.0 | 0.00 | 0.03 | 0.00 | 92 | 1006.4 |
| 20260904072041 | 67 | 5 | 2.0 | 5.0 | 0.00 | 0.03 | 0.00 | 92 | 1006.3 |
| 20260904071538 | 67 | 5 | 2.0 | 10.0 | 0.00 | 0.03 | 0.00 | 92 | 1006.4 |
| 20260904071037 | 67 | 5 | 2.0 | 10.0 | 0.00 | 0.03 | 0.00 | 92 | 1006.3 |
| 20260904070536 | 67 | 355 | 3.0 | 8.0 | 0.00 | 0.03 | 0.00 | 92 | 1006.2 |
| 20260904070043 | 67 | 9 | 3.0 | 8.0 | 0.00 | 0.03 | 0.00 | 92 | 1006.2 |
| 20260904065536 | 67 | 360 | 2.0 | 6.0 | 0.00 | 0.03 | 0.00 | 92 | 1006.1 |
| 20260904065033 | 68 | 5 | 3.0 | 9.0 | 0.00 | 0.03 | 0.00 | 92 | 1006.1 |
| 20260904064539 | 68 | 9 | 3.0 | 9.0 | 0.00 | 0.03 | 0.00 | 92 | 1006.0 |
| 20260904064031 | 68 | 348 | 4.0 | 9.0 | 0.00 | 0.03 | 0.00 | 92 | 1005.9 |
| 20260904063531 | 68 | 360 | 3.0 | 8.0 | 0.00 | 0.03 | 0.00 | 92 | 1005.9 |
| 20260904063031 | 68 | 348 | 4.0 | 11.0 | 0.00 | 0.03 | 0.00 | 91 | 1006.0 |
| 20260904062530 | 68 | 9 | 4.0 | 11.0 | 0.00 | 0.03 | 0.00 | 91 | 1006.0 |
| 20260904062028 | 68 | 5 | 5.0 | 9.0 | 0.00 | 0.03 | 0.00 | 91 | 1005.9 |
| 20260904061536 | 68 | 360 | 3.0 | 9.0 | 0.00 | 0.03 | 0.00 | 91 | 1005.8 |
| 20260904061028 | 68 | 5 | 3.0 | 9.0 | 0.00 | 0.03 | 0.00 | 91 | 1005.8 |
| 20260904060526 | 68 | 355 | 3.0 | 9.0 | 0.00 | 0.03 | 0.00 | 91 | 1005.8 |
| 20260904060033 | 68 | 13 | 3.0 | 8.0 | 0.00 | 0.03 | 0.00 | 90 | 1005.6 |
| 20260904055524 | 68 | 5 | 3.0 | 8.0 | 0.00 | 0.03 | 0.00 | 90 | 1005.4 |
| 20260904055021 | 69 | 5 | 2.0 | 8.0 | 0.00 | 0.03 | 0.00 | 90 | 1005.2 |
| 20260904054528 | 69 | 360 | 4.0 | 10.0 | 0.00 | 0.03 | 0.00 | 90 | 1005.1 |
| 20260904054024 | 69 | 29 | 5.0 | 10.0 | 0.00 | 0.03 | 0.00 | 90 | 1005.1 |
| 20260904053519 | 69 | 12 | 4.0 | 9.0 | 0.00 | 0.03 | 0.00 | 90 | 1005.1 |
| 20260904053018 | 69 | 349 | 4.0 | 9.0 | 0.00 | 0.03 | 0.00 | 90 | 1005.0 |
| 20260904052519 | 69 | 5 | 4.0 | 9.0 | 0.00 | 0.03 | 0.00 | 90 | 1004.8 |
| 20260904052017 | 69 | 5 | 4.0 | 11.0 | 0.00 | 0.03 | 0.00 | 89 | 1004.8 |
| 20260904051516 | 70 | 355 | 5.0 | 11.0 | 0.00 | 0.03 | 0.00 | 89 | 1004.9 |
| 20260904051014 | 70 | 10 | 3.0 | 11.0 | 0.00 | 0.03 | 0.00 | 90 | 1004.9 |
| 20260904050513 | 70 | 19 | 3.0 | 11.0 | 0.00 | 0.03 | 0.00 | 90 | 1004.7 |
| 20260904050018 | 70 | 355 | 6.0 | 11.0 | 0.00 | 0.03 | 0.00 | 90 | 1004.5 |
| 20260904045512 | 70 | 5 | 4.0 | 10.0 | 0.00 | 0.03 | 0.03 | 90 | 1004.4 |
| 20260904045016 | 70 | 5 | 5.0 | 10.0 | 0.00 | 0.03 | 0.03 | 90 | 1004.4 |
| 20260904044512 | 70 | 5 | 4.0 | 6.0 | 0.00 | 0.03 | 0.03 | 89 | 1004.4 |
| 20260904044012 | 71 | 355 | 2.0 | 6.0 | 0.00 | 0.03 | 0.03 | 90 | 1004.6 |
| 20260904043514 | 71 | 10 | 4.0 | 10.0 | 0.00 | 0.03 | 0.03 | 90 | 1004.7 |
| 20260904043012 | 71 | 5 | 5.0 | 10.0 | 0.00 | 0.03 | 0.03 | 89 | 1004.6 |
| 20260904042511 | 71 | 10 | 4.0 | 11.0 | 0.00 | 0.03 | 0.03 | 90 | 1004.5 |
| 20260904042010 | 72 | 5 | 5.0 | 11.0 | 0.00 | 0.03 | 0.03 | 90 | 1004.4 |
| 20260904041516 | 72 | 11 | 3.0 | 10.0 | 0.00 | 0.03 | 0.03 | 90 | 1004.3 |
| 20260904041010 | 72 | 5 | 2.0 | 9.0 | 0.00 | 0.03 | 0.03 | 90 | 1004.3 |
| 20260904040510 | 72 | 351 | 3.0 | 9.0 | 0.00 | 0.03 | 0.03 | 90 | 1004.2 |
| 20260904040019 | 72 | 355 | 4.0 | 9.0 | 0.00 | 0.03 | 0.03 | 91 | 1004.1 |
| 20260904035510 | 72 | 9 | 5.0 | 9.0 | 0.00 | 0.03 | 0.03 | 91 | 1004.1 |
| 20260904035012 | 72 | 13 | 4.0 | 9.0 | 0.00 | 0.03 | 0.03 | 91 | 1004.1 |
| 20260904034510 | 73 | 5 | 3.0 | 9.0 | 0.00 | 0.03 | 0.03 | 91 | 1004.1 |
| 20260904034011 | 73 | 360 | 4.0 | 9.0 | 0.00 | 0.03 | 0.03 | 91 | 1004.2 |
| 20260904033509 | 73 | 5 | 3.0 | 9.0 | 0.00 | 0.03 | 0.03 | 91 | 1004.1 |
| 20260904033010 | 73 | 5 | 3.0 | 9.0 | 0.00 | 0.03 | 0.03 | 91 | 1004.1 |
| 20260904032509 | 73 | 360 | 3.0 | 6.0 | 0.00 | 0.03 | 0.03 | 91 | 1004.0 |
| 20260904032008 | 73 | 5 | 3.0 | 6.0 | 0.00 | 0.03 | 0.03 | 91 | 1004.1 |
| 20260904031512 | 73 | 355 | 3.0 | 6.0 | 0.00 | 0.03 | 0.03 | 92 | 1004.1 |
| 20260904031008 | 73 | 9 | 3.0 | 6.0 | 0.00 | 0.03 | 0.03 | 92 | 1004.0 |
| 20260904030508 | 73 | 11 | 4.0 | 6.0 | 0.00 | 0.03 | 0.03 | 92 | 1004.1 |
| 20260904030010 | 73 | 5 | 3.0 | 5.0 | 0.00 | 0.03 | 0.03 | 92 | 1004.0 |
| 20260904025508 | 73 | 5 | 3.0 | 5.0 | 0.00 | 0.03 | 0.03 | 92 | 1004.0 |
| 20260904025008 | 73 | 5 | 2.0 | 8.0 | 0.00 | 0.03 | 0.03 | 93 | 1004.0 |
| 20260904024512 | 73 | 5 | 2.0 | 5.0 | 0.00 | 0.03 | 0.03 | 93 | 1003.9 |
| 20260904024008 | 73 | 5 | 3.0 | 5.0 | 0.00 | 0.03 | 0.03 | 93 | 1003.9 |
| 20260904023506 | 73 | 5 | 3.0 | 5.0 | 0.00 | 0.03 | 0.03 | 93 | 1003.8 |
| 20260904023013 | 72 | 5 | 3.0 | 5.0 | 0.00 | 0.03 | 0.03 | 93 | 1003.8 |
| 20260904022510 | 72 | 5 | 2.0 | 5.0 | 0.00 | 0.03 | 0.03 | 92 | 1003.7 |
| 20260904022008 | 72 | 5 | 2.0 | 4.0 | 0.00 | 0.03 | 0.03 | 92 | 1003.7 |
| 20260904021519 | 72 | 5 | 1.0 | 4.0 | 0.00 | 0.03 | 0.03 | 92 | 1003.7 |
| 20260904021005 | 72 | 5 | 0.0 | 2.0 | 0.00 | 0.03 | 0.03 | 92 | 1003.7 |
| 20260904020507 | 72 | 5 | 0.0 | 3.0 | 0.00 | 0.03 | 0.03 | 92 | 1003.8 |
| 20260904020006 | 72 | 5 | 0.0 | 5.0 | 0.00 | 0.03 | 0.03 | 92 | 1003.9 |
| 20260904015505 | 72 | 5 | 2.0 | 5.0 | 0.00 | 0.03 | 0.03 | 91 | 1003.8 |
| 20260904015005 | 72 | 355 | 2.0 | 5.0 | 0.00 | 0.03 | 0.03 | 91 | 1003.7 |
| 20260904014505 | 72 | 350 | 1.0 | 4.0 | 0.00 | 0.03 | 0.03 | 91 | 1003.6 |
| 20260904014005 | 72 | 355 | 2.0 | 5.0 | 0.00 | 0.03 | 0.03 | 91 | 1003.6 |
| 20260904013506 | 72 | 345 | 2.0 | 3.0 | 0.00 | 0.03 | 0.03 | 91 | 1003.6 |
| 20260904013005 | 72 | 344 | 0.0 | 2.0 | 0.01 | 0.03 | 0.03 | 91 | 1003.4 |
| 20260904012505 | 73 | 344 | 0.0 | 4.0 | 0.02 | 0.03 | 0.03 | 90 | 1003.2 |
| 20260904012004 | 73 | 344 | 0.0 | 4.0 | 0.03 | 0.03 | 0.03 | 90 | 1003.1 |
| 20260904011504 | 73 | 302 | 0.0 | 4.0 | 0.03 | 0.03 | 0.03 | 90 | 1003.0 |
| 20260904011003 | 73 | 302 | 2.0 | 4.0 | 0.03 | 0.03 | 0.03 | 90 | 1003.0 |
| 20260904010503 | 73 | 289 | 1.0 | 4.0 | 0.03 | 0.03 | 0.03 | 90 | 1002.9 |
| 20260904010002 | 73 | 287 | 2.0 | 4.0 | 0.03 | 0.03 | 0.03 | 89 | 1002.8 |
| 20260904005502 | 73 | 360 | 0.0 | 6.0 | 0.03 | 0.03 | 0.03 | 89 | 1003.0 |
| 20260904005003 | 73 | 5 | 2.0 | 6.0 | 0.03 | 0.03 | 0.03 | 88 | 1003.0 |
| 20260904004502 | 73 | 11 | 3.0 | 6.0 | 0.03 | 0.03 | 0.03 | 88 | 1003.2 |
| 20260904004000 | 74 | 5 | 1.0 | 4.0 | 0.03 | 0.03 | 0.03 | 87 | 1003.2 |
| 20260904003601 | 74 | 11 | 0.0 | 5.0 | 0.03 | 0.03 | 0.03 | 87 | 1003.5 |
| 20260904003100 | 75 | 11 | 1.0 | 8.0 | 0.02 | 0.02 | 0.02 | 84 | 1003.8 |
| 20260904002559 | 75 | 5 | 2.0 | 8.0 | 0.01 | 0.01 | 0.01 | 83 | 1003.7 |
| 20260904002058 | 75 | 5 | 2.0 | 6.0 | 0.00 | 0.00 | 0.00 | 82 | 1003.6 |
| 20260904001609 | 76 | 360 | 2.0 | 10.0 | 0.00 | 0.00 | 0.00 | 81 | 1003.6 |
| 20260904001059 | 76 | 13 | 3.0 | 10.0 | 0.00 | 0.00 | 0.00 | 81 | 1003.4 |
| 20260904001004 | 76 | 9 | 4.0 | 10.0 | 0.00 | 0.00 | 0.00 | 81 | 1003.3 |
| 20260904000600 | 76 | 13 | 4.0 | 8.0 | 0.00 | 0.00 | 0.00 | 80 | 1003.0 |
| 20260904000058 | 76 | 13 | 4.0 | 9.0 | 0.00 | 0.00 | 0.00 | 80 | 1003.0 |
| 20260903235558 | 76 | 19 | 4.0 | 9.0 | 0.00 | 0.00 | 0.00 | 80 | 1002.7 |
| 20260903235058 | 76 | 9 | 3.0 | 9.0 | 0.00 | 0.00 | 0.00 | 80 | 1003.0 |
| 20260903234558 | 76 | 9 | 4.0 | 9.0 | 0.00 | 0.00 | 0.00 | 79 | 1002.9 |
| 20260903234058 | 76 | 5 | 5.0 | 9.0 | 0.00 | 0.00 | 0.00 | 79 | 1002.7 |
| 20260903233557 | 77 | 9 | 3.0 | 8.0 | 0.00 | 0.00 | 0.00 | 79 | 1003.0 |
| 20260903233056 | 77 | 11 | 4.0 | 8.0 | 0.00 | 0.00 | 0.00 | 79 | 1003.0 |
| 20260903232600 | 77 | 9 | 3.0 | 8.0 | 0.00 | 0.00 | 0.00 | 79 | 1002.9 |
| 20260903232057 | 77 | 11 | 2.0 | 8.0 | 0.00 | 0.00 | 0.00 | 78 | 1002.8 |
| 20260903231604 | 77 | 10 | 3.0 | 8.0 | 0.00 | 0.00 | 0.00 | 78 | 1002.7 |
| 20260903231057 | 77 | 22 | 4.0 | 9.0 | 0.00 | 0.00 | 0.00 | 78 | 1002.6 |
| 20260903230556 | 78 | 5 | 4.0 | 10.0 | 0.00 | 0.00 | 0.00 | 77 | 1002.5 |
| 20260903230056 | 78 | 5 | 5.0 | 10.0 | 0.00 | 0.00 | 0.00 | 77 | 1002.6 |
| 20260903225556 | 78 | 13 | 3.0 | 10.0 | 0.00 | 0.00 | 0.00 | 77 | 1002.5 |
| 20260903225055 | 78 | 11 | 4.0 | 11.0 | 0.00 | 0.00 | 0.00 | 76 | 1002.5 |
| 20260903224556 | 78 | 5 | 5.0 | 11.0 | 0.00 | 0.00 | 0.00 | 75 | 1002.7 |
| 20260903224055 | 78 | 22 | 4.0 | 12.0 | 0.00 | 0.00 | 0.00 | 75 | 1002.7 |
| 20260903223555 | 78 | 19 | 6.0 | 13.0 | 0.00 | 0.00 | 0.00 | 76 | 1002.8 |
| 20260903223055 | 78 | 355 | 7.0 | 13.0 | 0.00 | 0.00 | 0.00 | 76 | 1002.7 |
| 20260903222555 | 78 | 360 | 7.0 | 13.0 | 0.00 | 0.00 | 0.00 | 75 | 1002.7 |
| 20260903222155 | 78 | 348 | 5.0 | 13.0 | 0.00 | 0.00 | 0.00 | 75 | 1002.6 |
| 20260903221553 | 79 | 5 | 7.0 | 17.0 | 0.00 | 0.00 | 0.00 | 72 | 1002.7 |
| 20260903221053 | 82 | 5 | 9.0 | 17.0 | 0.00 | 0.00 | 0.00 | 69 | 1003.1 |
| 20260903220553 | 84 | 342 | 3.0 | 8.0 | 0.00 | 0.00 | 0.00 | 69 | 1002.8 |
| 20260903220058 | 85 | 5 | 3.0 | 9.0 | 0.00 | 0.00 | 0.00 | 68 | 1002.4 |
| 20260903215555 | 86 | 346 | 5.0 | 9.0 | 0.00 | 0.00 | 0.00 | 66 | 1002.4 |
| 20260903215055 | 86 | 347 | 3.0 | 5.0 | 0.00 | 0.00 | 0.00 | 66 | 1002.3 |
| 20260903214552 | 87 | 346 | 2.0 | 5.0 | 0.00 | 0.00 | 0.00 | 66 | 1002.0 |
| 20260903214054 | 87 | 331 | 3.0 | 5.0 | 0.00 | 0.00 | 0.00 | 65 | 1001.6 |
| 20260903213554 | 87 | 286 | 2.0 | 5.0 | 0.00 | 0.00 | 0.00 | 65 | 1001.5 |
| 20260903213102 | 87 | 295 | 2.0 | 5.0 | 0.00 | 0.00 | 0.00 | 64 | 1001.5 |
| 20260903212550 | 87 | 338 | 1.0 | 4.0 | 0.00 | 0.00 | 0.00 | 65 | 1001.6 |
| 20260903212050 | 87 | 338 | 2.0 | 5.0 | 0.00 | 0.00 | 0.00 | 64 | 1001.6 |
| 20260903211549 | 87 | 57 | 2.0 | 5.0 | 0.00 | 0.00 | 0.00 | 64 | 1001.7 |
| 20260903211049 | 87 | 274 | 2.0 | 6.0 | 0.00 | 0.00 | 0.00 | 64 | 1001.7 |
| 20260903210549 | 88 | 287 | 1.0 | 4.0 | 0.00 | 0.00 | 0.00 | 64 | 1001.7 |
| 20260903210051 | 88 | 78 | 1.0 | 4.0 | 0.00 | 0.00 | 0.00 | 63 | 1001.6 |
| 20260903205547 | 88 | 335 | 1.0 | 3.0 | 0.00 | 0.00 | 0.00 | 63 | 1001.6 |
| 20260903205047 | 88 | 312 | 1.0 | 9.0 | 0.00 | 0.00 | 0.00 | 63 | 1001.7 |
| 20260903204547 | 88 | 197 | 2.0 | 9.0 | 0.00 | 0.00 | 0.00 | 62 | 1001.7 |
| 20260903204046 | 88 | 210 | 2.0 | 9.0 | 0.00 | 0.00 | 0.00 | 62 | 1001.7 |
| 20260903203545 | 88 | 205 | 1.0 | 9.0 | 0.00 | 0.00 | 0.00 | 62 | 1001.7 |
| 20260903203052 | 88 | 28 | 3.0 | 9.0 | 0.00 | 0.00 | 0.00 | 62 | 1001.8 |
| 20260903202543 | 88 | 267 | 1.0 | 7.0 | 0.00 | 0.00 | 0.00 | 62 | 1002.0 |
| 20260903202043 | 88 | 226 | 1.0 | 7.0 | 0.00 | 0.00 | 0.00 | 61 | 1002.0 |
| 20260903201543 | 88 | 232 | 2.0 | 6.0 | 0.00 | 0.00 | 0.00 | 62 | 1002.0 |
| 20260903201045 | 88 | 281 | 2.0 | 7.0 | 0.00 | 0.00 | 0.00 | 61 | 1002.1 |
| 20260903200543 | 89 | 279 | 2.0 | 7.0 | 0.00 | 0.00 | 0.00 | 60 | 1002.0 |
| 20260903200040 | 90 | 286 | 2.0 | 10.0 | 0.00 | 0.00 | 0.00 | 59 | 1002.1 |
| 20260903195539 | 90 | 190 | 3.0 | 10.0 | 0.00 | 0.00 | 0.00 | 59 | 1002.2 |
| 20260903195040 | 89 | 273 | 1.0 | 6.0 | 0.00 | 0.00 | 0.00 | 61 | 1002.2 |
| 20260903194537 | 89 | 322 | 2.0 | 6.0 | 0.00 | 0.00 | 0.00 | 60 | 1002.1 |
| 20260903194035 | 89 | 276 | 1.0 | 8.0 | 0.00 | 0.00 | 0.00 | 61 | 1002.2 |
| 20260903193535 | 88 | 223 | 3.0 | 8.0 | 0.00 | 0.00 | 0.00 | 62 | 1002.1 |
| 20260903193035 | 88 | 327 | 2.0 | 5.0 | 0.00 | 0.00 | 0.00 | 62 | 1002.0 |
| 20260903192533 | 88 | 345 | 2.0 | 8.0 | 0.00 | 0.00 | 0.00 | 64 | 1002.2 |
| 20260903192031 | 87 | 328 | 2.0 | 8.0 | 0.00 | 0.00 | 0.00 | 64 | 1002.2 |
| 20260903191538 | 87 | 324 | 2.0 | 9.0 | 0.00 | 0.00 | 0.00 | 63 | 1002.2 |
| 20260903191029 | 88 | 256 | 2.0 | 9.0 | 0.00 | 0.00 | 0.00 | 63 | 1002.2 |
| 20260903190529 | 87 | 265 | 2.0 | 10.0 | 0.00 | 0.00 | 0.00 | 64 | 1002.2 |
| 20260903190027 | 87 | 115 | 2.0 | 8.0 | 0.00 | 0.00 | 0.00 | 64 | 1002.4 |
| 20260903185526 | 87 | 295 | 3.0 | 8.0 | 0.00 | 0.00 | 0.00 | 63 | 1002.5 |
| 20260903185025 | 87 | 270 | 2.0 | 6.0 | 0.00 | 0.00 | 0.00 | 64 | 1002.5 |
| 20260903184524 | 87 | 269 | 1.0 | 7.0 | 0.00 | 0.00 | 0.00 | 64 | 1002.6 |
| 20260903184023 | 86 | 325 | 3.0 | 10.0 | 0.00 | 0.00 | 0.00 | 64 | 1002.7 |
| 20260903183521 | 87 | 212 | 6.0 | 10.0 | 0.00 | 0.00 | 0.00 | 63 | 1002.7 |
| 20260903183027 | 87 | 195 | 3.0 | 10.0 | 0.00 | 0.00 | 0.00 | 64 | 1002.9 |
| 20260903182519 | 87 | 176 | 3.0 | 6.0 | 0.00 | 0.00 | 0.00 | 65 | 1003.0 |